星链-2598 (STARLINK-2598 )

导读 | 星芒AI

STARLINK-2598 是 SpaceX Starlink 项目中的一颗低轨通信卫星,属于第二代 Starlink 卫星(Gen2)批次。该卫星于2024年发射,旨在增强全球互联网覆盖,提供更高速度和更低延迟的网络服务。它运行在约550公里高的轨道上,配备先进通信设备和激光链路,支持卫星间直接通信。STARLINK-2598 是 SpaceX 扩展其全球宽带网络计划的一部分,有助于改善偏远地区的网络接入。

基本信息
目录编号:
48385
目录名称:
STARLINK-2598
国际标识:
2021-038AJ
轨道中心:
EARTH
卫星名称:
星链-2598
卫星全名:
星链-2598 (STARLINK-2598 )
卫星状态:
在轨 (已飞行1640 天)
发射日期:
2021-05-04 UTC
国别 :
美国 (US)
星等 :
--
轨道信息
数据来源 国际轨道数据 AOE轨道数据
星历时间 2025-10-30T09:50:20+0800
11小时前
查看轨道信息
2025-10-28T11:00:00+0800
2天前
查看轨道信息
半长轴 6925.197km 6925.395km
偏心率 0.0001342 0.0001488
轨道倾角 53.053° 53.055°
近地点辐角 91.409° 86.225°
升交点赤经 217.962° 226.724°
平近点角 268.705° 124.149°
近地点 546.132km 546.229km
远地点 547.992km 548.291km
周期 95.589分钟 95.593分钟
每日圈数 15.064495 15.063851
详细信息
固有亮度:
5
最大亮度:
2.5
卫星平台:
Starlink V1.0
覆盖范围:
全球
运营商:
太空探索技术公司
运营商所在国:
美国
制造商(研发单位):
太空探索技术公司
制造商所在国:
美国
使用方式:
暂无
卫星简介
星链(Starlink)计划是由太空探索技术公司(SpaceX)提出的一个巨型低轨卫星互联网星座项目,计划在2019年至2024年间在太空搭建由约1.2万颗卫星组成的“星链”网络,其中1584颗将部署在地球上空550千米处的近地轨道,并从2020年开始工作。该卫星仍在工作。
2D轨道图
3D轨道图
轨道高度分析图
轨道倾角分析图
轨道综合分析图
查看轨道综合分析图